www.pogodaiklimat.ru

Архив погоды в Ялте (Крым, Россия)

Время
(UTC), дата
15 21.05
18 21.05
21 21.05
00 22.05
03 22.05
06 22.05
09 22.05
12 22.05
15 22.05
18 22.05
21 22.05
00 23.05
03 23.05
06 23.05
09 23.05
12 23.05
15 23.05
18 23.05
21 23.05
00 24.05
03 24.05
06 24.05
09 24.05
12 24.05
15 24.05
18 24.05
21 24.05
00 25.05
03 25.05
06 25.05
09 25.05
12 25.05
15 25.05
18 25.05
21 25.05
00 26.05
03 26.05
06 26.05
09 26.05
12 26.05
15 26.05
18 26.05
21 26.05
00 27.05
03 27.05
06 27.05
09 27.05
12 27.05
15 27.05
18 27.05
21 27.05
00 28.05
03 28.05
06 28.05
09 28.05
Ветер
(напр.,м/с)
Видим. Явления Облачность Т
(С)
Тd
(С)
f
(%)
Тe
(С)
Тes
(С)
Комфортность P
(гПа)
Po
(гПа)
Тmin
(С)
Tmax
(С)
R
(мм)
R24
(мм)
S
(см)
СВ 2 50 км 6/0
[Ci sp]
+18.1 +8.1 52 +19 +20 тепло 1015.2 1006.7
З 1 50 км 3/0
[Ci sp]
+13.8 +6.6 62 +14 +14 по сезону 1013.9 1005.3 +24.4
В 1 50 км ясно +12.1 +7.6 74 +12 +12 прохладно 1012.7 1004.0
ЮЗ 1 50 км ясно +11.5 +5.8 68 +12 +12 прохладно 1010.0 1001.3
СЗ 1 50 км ясно +11.6 +6.7 72 +12 +12 прохладно 1007.3 998.7 +11.1
СВ 2 50 км 3/0
[Ac trans]
+15.8 +14.2 90 +16 +23 прохладно 1005.8 997.3 +11.1
СВ 1 50 км 9/3 1000 м
[Cu med, cong Ac trans]
+15.4 +13.1 86 +16 +18 прохладно 1005.8 997.3
Ю 1 50 км {ливн. дождь} 9/4 1000 м
[Cb calv Ac cuf]
+16.1 +12.8 81 +17 +19 прохладно 1004.5 996.0
Ю 1 50 км {ливн. дождь} 6/1 1000 м
[Cu med, cong Ac trans Ci sp]
+16.2 +11.6 74 +17 +18 по сезону 1004.5 996.0 0.4
СЗ 1 50 км {ливн. дождь} 6/0
[Ac lent Ci fib]
+13.8 +12.0 89 +14 +14 по сезону 1005.8 997.3 +17.3 0.4
ЮВ 1 50 км 3/1 1000 м
[Sc Ci sp]
+15.7 +7.2 57 +16 +16 по сезону 1005.8 997.3
СЗ 1 50 км 3/1 1000 м
[Sc Ci fib]
+14.3 +6.9 61 +15 +15 по сезону 1005.8 997.3
С 2 50 км 9/3 1000 м
[Sc Ci fib]
+14.7 +7.5 62 +14 +14 прохладно 1005.8 997.3 +13.8
В 2 50 км 6/3 1000 м
[Cu hum Ac lent Ci sp]
+19.5 +7.2 45 +21 +24 комфорт 1005.7 997.3 +13.8
СЗ 2 50 км 9/4 1000 м
[Cu med, cong Ac trans Ci sp]
+20.0 +6.7 42 +21 +23 комфорт 1005.7 997.3
В 2 50 км 5/3 1000 м
[Cb calv Ac trans Ci sp]
+18.9 +8.2 50 +20 +27 по сезону 1005.7 997.3
ЮЗ 2 50 км 5/4 1000 м
[Cu med, cong Ci fib]
+16.5 +11.0 70 +17 +18 по сезону 1007.2 998.7
штиль 0 50 км 9/4 1000 м
[Sc diur, vesp Ac trans Ci fib]
+14.2 +9.8 75 +14 +14 прохладно 1008.5 1000.0 +21.1
СЗ 2 10 км слаб. ливневой дождь 10/10 300 м
[Cb cap]
+11.7 +10.4 92 +10 +10 холодно 1008.6 1000.0
З 1 10 км слаб. ливневой дождь 10/10 300 м
[Cb cap]
+12.2 +10.9 92 +12 +12 прохладно 1009.9 1001.3
С 1 50 км {ливн. дождь} 9/4 1000 м
[Sc Ac trans Ci fib]
+12.6 +10.0 84 +13 +13 прохладно 1009.9 1001.3 +11.7 3
В 2 50 км {ливн. дождь} 4/3 1000 м
[Cu med, cong Ci sp]
+17.5 +9.9 61 +18 +23 по сезону 1011.2 1002.7 +11.7 3
Ю 1 50 км 9/8 600 м
[Cb cap Ac As]
+16.7 +10.8 68 +18 +20 по сезону 1013.8 1005.3
С 1 50 км в посл. час ливневой дождь 9/8 1000 м
[Cb cap Ac As]
+14.1 +12.7 91 +14 +16 холодно 1013.9 1005.3
З 1 10 км слаб. ливневой дождь 9/8 1000 м
[Cb cap Ac As]
+14.9 +12.0 83 +15 +16 прохладно 1013.9 1005.3 1
СЗ 1 50 км {ливн. дождь} 1/1 1000 м
[Sc]
+12.9 +11.8 93 +13 +13 прохладно 1015.3 1006.7 +18.6 1
СЗ 1 50 км ясно +11.9 +9.8 87 +12 +12 прохладно 1016.7 1008.0
СЗ 1 50 км ясно +11.7 +8.7 82 +12 +12 прохладно 1016.7 1008.0
СЗ 1 50 км ясно +12.5 +6.3 66 +13 +13 прохладно 1018.0 1009.3 +11.0 0.1
ЮЗ 1 50 км ясно +16.9 +11.0 68 +18 +28 по сезону 1019.3 1010.7 +11.0
Ю 2 50 км 5/5 1000 м
[Cb calv]
+18.7 +11.5 63 +20 +29 по сезону 1020.5 1012.0
СВ 1 50 км 8/8 1000 м
[Cb calv]
+17.6 +8.7 56 +19 +24 по сезону 1020.6 1012.0
СВ 1 50 км 5/5 1000 м
[Cb calv]
+17.7 +11.9 69 +19 +21 по сезону 1020.5 1012.0
СЗ 1 50 км 3/3 1000 м
[Cu hum]
+14.8 +12.5 86 +15 +15 по сезону 1020.6 1012.0 +19.3
СЗ 1 50 км ясно +12.6 +10.1 85 +13 +13 прохладно 1022.0 1013.3
СЗ 1 50 км ясно +12.5 +7.4 71 +13 +13 по сезону 1020.7 1012.0
С 1 50 км 3/0
[Ci fib]
+13.0 +6.3 64 +13 +14 по сезону 1020.7 1012.0 +11.9
В 1 50 км 3/0
[Ci fib]
+16.3 +11.0 71 +17 +26 по сезону 1020.6 1012.0 +11.9
В 2 50 км 8/0
[Ci sp]
+18.1 +14.8 81 +19 +24 тепло 1020.5 1012.0
ЮВ 2 50 км 6/0
[Ac trans Ci fib]
+18.4 +12.8 70 +19 +25 тепло 1019.2 1010.7
ЮВ 1 10 км слаб. ливневой дождь 10/8 1000 м
[Cb cap Ac und]
+15.9 +13.7 87 +17 +17 по сезону 1019.3 1010.7 0.0
Ю 1 50 км {ливн. дождь} 10/3 1000 м
[Cb calv Ac und]
+14.3 +13.0 92 +15 +15 по сезону 1017.9 1009.3 +19.3 0.6
СЗ 1 50 км 1/1 1000 м
[Sc]
+12.7 +11.3 91 +13 +13 по сезону 1019.4 1010.7
СЗ 1 50 км 1/1 1000 м
[Sc]
+12.7 +10.9 89 +13 +13 по сезону 1018.0 1009.3
штиль 0 50 км ясно +12.7 +10.2 85 +12 +13 по сезону 1019.4 1010.7 +11.8 0.6
ЮВ 1 50 км 1/1 1000 м
[Cu hum]
+18.7 +13.8 73 +21 +30 комфорт 1019.2 1010.7 +11.8
В 1 50 км 6/6 1000 м
[Cu med, cong]
+18.5 +15.6 83 +20 +29 тепло 1020.5 1012.0
В 1 50 км 8/8 1000 м
[Cu med, cong]
+19.4 +14.8 75 +22 +27 комфорт 1019.2 1010.7
В 1 50 км 3/3 200 м
[St]
+17.3 +15.3 88 +18 +21 тепло 1017.8 1009.3
В 1 4000 м туман на расстоянии 1/1 200 м
[St]
+14.9 +14.6 98 +15 +15 тепло 1017.9 1009.3 +20.1
СЗ 1 500 м туман 1/1 300 м
[St]
+13.5 +13.0 97 +14 +14 по сезону 1016.6 1008.0
СЗ 1 2000 м дымка {туман} 1/1 300 м
[St]
+12.1 +11.6 97 +12 +12 по сезону 1015.4 1006.7
штиль 0 4000 м 1 балл +12.5 +11.2 92 1015.4 1006.7 +11.8
В 1 1000 м 1 балл +16.3 +13.0 81 +17 +27 тепло 1015.2 1006.7 +11.8
В 2 50 км 4 балла +16.3 +14.1 87 +16 +27 тепло 1015.2 1006.7
Местоположение метеостанции Ялта (Крым, Россия): широта 44.48 долгота 34.17 высота над уровнем моря 72 м.
В архиве по умолчанию представлена погода в Ялте за последнюю неделю. Архивные данные за месяц целиком и за предыдущие месяцы, начиная с января 2011 года, Вы можете получить, выбрав интересующий диапазон дат из раскрывающегося списка и нажав кнопку "Найти!".
*Определитесь, кто Вы:
Внимание! Время в таблицах - всемирное. Для получения местного времени необходимо прибавить поправку, которая равна 3 ч.
Смотрите также архив погоды в соседних городах и на ближайших метеорологических станциях:
Партнеры нашего сайта:
Ультразвуковые расходомеры в Ханты-Мансийске
khanty-mansiysk.us800.ru

Ультразвуковые теплосчетчики в Белгороде
belgorod.us800.ru

     
Пояснения к столбцам:
  • Ветер - указаны скорость ветра в м/с - средняя за 10 мин, порывы в срок и между сроками (в фигурных скобках) и направление, откуда дует ветер: С - северный,
  • СВ - северо-восточный, В - восточный, ЮВ - юго-восточный, Ю - южный, ЮЗ - юго-западный, З - западный, СЗ - северо-западный.
  • Видимость - горизонтальная дальность видимости в метрах или километрах. При видимости от 1 до 10 км при отсутствии осадков обычно наблюдается дымка, при ухудшении видимости до 1 км и менее - туман. В сухую погоду видимость может ухудшаться дымом, пылью или мглою.
  • Явления - указаны атмосферные явления, наблюдавшиеся в срок или в последний час перед сроком; фигурными скобками обозначены явления, наблюдавшиеся между сроками (за 1-3 часа до срока); квадратными скобками обозначены град или гололедные отложения с указанием их диаметра в мм.
  • Облачность - указаны через наклонную черту общая и нижняя облачность в баллах и высота нижней границы облаков в метрах; квадратными скобками обозначены формы облаков: Ci - перистые, Cs - перисто-слоистые, Cc - перисто-кучевые, Ac - высококучевые, As - высокослоистые, Sc - слоисто-кучевые, Ns - слоисто-дождевые, Cu - кучевые, Cb - кучево-дождевые. Подробнее классификацию облаков см. в Атласе облаков (PDF).
  • T - Температура воздуха - температура, измеренная на высоте 2 м над землей.
  • Td - Температура точки росы - температура, при понижении до которой содержащийся в воздухе водяной пар достигнет насыщения.
  • f - Относительная влажность воздуха - влажноcть воздуха, измеренная на высоте 2 м над землей.
  • Te - Эффективная температура - температура, которую ощущает одетый по сезону человек в тени. Характеристика душности погоды. При расчете учитывается влияние влажности воздуха и скорости ветра на теплоощущения человека.
  • Tes - Эффективная температура на солнце - температура, которую ощущает человек, с поправкой на солнечный нагрев. Характеристика знойности погоды. Зависит от высоты солнца над горизонтом, облачности и скорости ветра. Ночью, в пасмурную погоду, а также при ветре 12 м/с и более поправка равна нулю.
  • P - Атмосферное давление - приведенное к уровню моря атмосферное давление.
  • Po - Атмосферное давление - измеренное на уровне метеостанции атмосферное давление.
  • Tmin - Минимальная температура - минимум температуры воздуха на высоте 2 м над землей.
  • Tmax - Максимальная температура - максимум температуры воздуха на высоте 2 м над землей.
  • R - Количество осадков - Количество выпавших осадков за период времени, мм. При наведении курсора мыши на число - период времени, за который выпало указанное количество осадков.
  • R24 - Количество осадков - Количество выпавших осадков за 24 часа, мм.
  • S - Снежный покров - Высота снежного покрова, см. При наведении курсора мыши на число - состояние снежного покрова и степень покрытия местности в баллах.